Regional Weather Roundup
Issued by NWS

Home | Current Version | Previous Version | Text Only | Print | Product List | Glossary Off
Versions: 1 2 3 4 5 6 7 8 9 10 11 12 13 14 15 16 17 18 19 20 21 22 23 24 25 26 27 28 29 30 31 32 33 34 35 36 37 38 39 40 41 42 43 44 45 46 47 48 49 50

000
ASUS43 KIND 270309
RWRIN

WEATHER ROUNDUP FOR INDIANA
NATIONAL WEATHER SERVICE INDIANAPOLIS IN
1100 PM EDT THU MAY 26 2016

NOTE: "FAIR" INDICATES FEW OR NO CLOUDS BELOW 12,000 FEET WITH NO
SIGNIFICANT WEATHER AND/OR OBSTRUCTIONS TO VISIBILITY.

* - STATION DOES NOT REPORT WEATHER SUCH AS PRECIPITATION OR FOG.

+ - STATION NOT QUALITY CONTROLLED BY THE NATIONAL WEATHER SERVICE.
    USE DATA WITH CAUTION...ESPECIALLY DEWPOINT AND RELATIVE
    HUMIDITY OBSERVATIONS.

INZ001>003-010>013-019-020-270400-
NORTHWEST INDIANA

CITY           SKY/WX    TMP DP  RH WIND       PRES   REMARKS
GARY /AIRPORT/ CLOUDY    79  72  78 VRB5      29.91R
KNOX *+        CLOUDY    72  57  60 S7        29.94S
LA PORTE +     CLOUDY    75  67  75 S6        29.94S
MICHIGAN CITY+ CLOUDY    73  64  73 S5        29.93F
MONTICELLO +   PTCLDY    71  62  74 S5        29.97R
RENSSELAER +   MOCLDY    72  66  83 S9        29.95S
VALPARAISO     CLOUDY    73  66  78 S7        29.93S

$$

LMZ046-743>745-270400-
SOUTHERN LAKE MICHIGAN

STATION/POSITION TIME  TEMP    WIND        PRES    WAVE
                       AIR SEA DIR/SP/G            HT
                 (UTC) (F)     (DEG/KT/KT) (MB)    (FT)
BURNS HARBOR     0200   78     180/  8/ 13 1013.2R
MICHIGAN CITY    0200   78     150/  9/ 10   N/A
5NW MICH CITY    0300   69 61  170/  6/  8   N/A     0

$$

INZ004-005-014>016-021>024-270400-
NORTH CENTRAL INDIANA

CITY           SKY/WX    TMP DP  RH WIND       PRES   REMARKS
GOSHEN         CLOUDY    69  58  67 SW6       29.96R
LOGANSPORT +   PTCLDY    70  61  73 SW8       29.98S
PERU/GRISSOM   PTCLDY    70  65  84 S9        29.97R
ROCHESTER +    CLEAR     73  64  73 SW6       29.97S
SOUTH BEND     CLOUDY    71  62  73 SW7       29.95R
WARSAW +       CLOUDY    70  59  68 CALM      29.97R

$$

INZ006>009-017-018-025>027-270400-
NORTHEAST INDIANA

CITY           SKY/WX    TMP DP  RH WIND       PRES   REMARKS
ANGOLA *+        N/A     70  63  78 SW3       29.96R
AUBURN +       PTCLDY    73  61  64 SW7       29.97R
FORT WAYNE     CLOUDY    72  60  66 SW13      29.98R
HUNTINGTON +   CLOUDY   N/A N/A N/A SW6       29.98R

$$

INZ028-029-035-036-043>045-051>053-270400-
WEST CENTRAL INDIANA

CITY           SKY/WX    TMP DP  RH WIND       PRES   REMARKS
CRAWFORDSVL +  MOCLDY    65  64  93 S8        29.98S
GREENCASTLE +  PTCLDY    64  63  94 CALM      29.99F
LAFAYETTE      CLOUDY    69  63  81 SW5       29.97R
TERRE HAUTE    CLOUDY    68  63  84 S7        29.98R

$$

INZ030>032-037>040-046>048-054>057-064-065-270400-
CENTRAL INDIANA

CITY           SKY/WX    TMP DP  RH WIND       PRES   REMARKS
CP ATTERBURY + CLOUDY    68  61  77 S7        30.00R
FISHERS *+     CLOUDY    66  64  94 S3        30.00R
FRANKFORT +      N/A     68  58  69 SW3       30.00S
GREENWOOD *+   CLEAR     66  63  88 S3        30.02R
INDIANAPOLIS   MOCLDY    67  63  87 S6        29.98R
-EAGLE CREEK   CLEAR     69  63  81 S3        29.99R
KOKOMO *+      PTCLDY    70  61  73 SW9       29.98S
MARION +       CLOUDY    69  62  77 SW9       29.99S
SHELBYVILLE    PTCLDY    68  63  84 S6        30.00R
ZIONSVILLE +   CLOUDY    66  63  87 S8        30.00S

$$

INZ033-034-041-042-049-050-058-059-270400-
EAST CENTRAL INDIANA

CITY           SKY/WX    TMP DP  RH WIND       PRES   REMARKS
MUNCIE         PTCLDY    71  62  73 SW7       30.00R

$$

INZ060-061-067>069-081>083-085>088-270400-
SOUTHWEST INDIANA

CITY           SKY/WX    TMP DP  RH WIND       PRES   REMARKS
EVANSVILLE     CLOUDY    65  62  90 CALM      29.98R
HUNTINGBURG *+ CLOUDY    66  63  88 E3        29.99S
WASHINGTON +   CLOUDY    66  66 100 CALM      29.97S

$$

INZ062-063-066-070>080-084-089>092-270400-
SOUTH CENTRAL AND SOUTHEAST INDIANA

CITY           SKY/WX    TMP DP  RH WIND       PRES   REMARKS
BEDFORD +      MOCLDY    68  68 100 S6        29.98F
BLOOMINGTON    CLOUDY    67  61  81 S6        29.99R
MADISON *+     CLOUDY    64  63  94 S6        30.03F
NORTH VERNON + CLOUDY   N/A N/A N/A CALM      30.01S
SEYMOUR +      MOCLDY    68  63  83 CALM      30.00R

$$





USA.gov is the U.S. government's official web portal to all federal, state and local government web resources and services.